Weather observations for the past three days for
Akron Canton Regional Airport
Imperial (Metric)
Date Time (edt) Wind (mph) Vis. (mi.) Weather Sky Cond. Temperature (ºF) Relative Humidity Wind Chill (°F) Heat Index (°F) Pressure Precipitation (in)
Air Dwpt 6 hour altimeter (in) sea level (mb) 1 hr 3 hr 6 hr
Max. Min.
13 20:51 E 7 10.00 A Few Clouds FEW090 78.1 69.1 74% 80 30.16 1020.1
13 19:51 E 6 10.00 A Few Clouds FEW110 81 69.1 90 80.1 67% 84 30.16 1020.3
13 18:51 NE 7 10.00 A Few Clouds FEW085 81 68 65% 84 30.15 1020.0
13 17:51 N 8 10.00 Mostly Cloudy FEW070 SCT090 BKN110 84 66.9 57% 87 30.15 1019.9
13 16:51 W 10 10.00 A Few Clouds FEW100 89.1 66.9 48% 92 30.14 1019.6
13 15:51 W 12 10.00 A Few Clouds FEW050 89.1 64.9 45% 91 30.15 1019.7
13 14:51 W 9 10.00 Partly Cloudy SCT048 SCT250 89.1 64.9 45% 91 30.16 1020.2
13 13:51 SW 8 10.00 Partly Cloudy SCT048 SCT250 89.1 64.9 89.1 73 45% 91 30.16 1020.3
13 12:51 SW 7 10.00 Partly Cloudy SCT047 88 66 48% 90 30.18 1021.0
13 11:51 Calm 10.00 Partly Cloudy SCT040 86 64.9 49% 88 30.19 1021.1
13 10:51 Calm 10.00 A Few Clouds FEW040 FEW250 84 64.9 53% 86 30.19 1021.4
13 09:51 Calm 10.00 Partly Cloudy FEW065 SCT100 82.9 66 57% 85 30.2 1021.4
13 08:51 Vrbl 3 10.00 Partly Cloudy SCT065 SCT100 79 66 65% 81 30.2 1021.6
13 07:51 E 3 10.00 Partly Cloudy FEW055 FEW070 SCT100 73 66.9 73 69.1 81% 30.2 1021.5
13 06:51 E 5 7.00 Mostly Cloudy FEW055 BKN070 BKN100 70 66.9 90% 30.19 1021.3
13 05:51 E 3 10.00 Mostly Cloudy FEW060 SCT075 BKN090 70 66 87% 30.18 1020.8
13 04:51 NE 3 10.00 Partly Cloudy SCT080 70 66 87% 30.16 1020.4
13 03:51 Calm 10.00 A Few Clouds FEW090 71.1 66 84% 30.15 1019.9
13 02:51 NE 3 10.00 A Few Clouds FEW100 72 66 82% 30.15 1019.8
13 01:51 E 5 10.00 A Few Clouds FEW100 72 64.9 84 72 79% 30.16 1020.2
13 00:51 E 5 10.00 A Few Clouds FEW100 73 64.9 76% 30.16 1020.1
12 23:51 E 5 10.00 Mostly Cloudy BKN100 75.9 64 67% 78 30.16 1020.3
12 22:51 NE 6 10.00 A Few Clouds FEW050 FEW100 75.9 64.9 69% 78 30.16 1020.2
12 21:51 NE 5 10.00 A Few Clouds FEW050 FEW110 77 64.9 66% 79 30.14 1019.8
12 20:51 Calm 10.00 A Few Clouds FEW050 FEW110 81 64 57% 83 30.14 1019.6
12 19:51 W 3 10.00 A Few Clouds FEW055 FEW110 84 64.9 88 84 53% 86 30.14 1019.6
12 18:51 NW 5 10.00 Partly Cloudy SCT050 SCT120 86 62.1 45% 87 30.12 1019.2
12 17:51 NW 5 10.00 Partly Cloudy SCT050 SCT120 88 63 43% 89 30.12 1019.0
12 16:51 W 6 10.00 Partly Cloudy SCT050 SCT180 87.1 63 45% 88 30.12 1019.1
12 15:51 Vrbl 5 10.00 Partly Cloudy SCT050 SCT180 87.1 63 45% 88 30.13 1019.5
12 14:51 Vrbl 3 10.00 Partly Cloudy SCT055 84.9 64 50% 86 30.15 1019.9
12 13:51 Vrbl 3 10.00 Partly Cloudy SCT050 SCT150 84.9 62.1 84.9 69.1 46% 85 30.16 1020.4
12 12:51 Calm 10.00 Partly Cloudy SCT035 SCT150 82 62.1 51% 83 30.18 1021.1
12 11:51 S 5 10.00 A Few Clouds FEW035 80.1 63 56% 81 30.18 1021.3
12 10:51 Vrbl 5 10.00 A Few Clouds FEW030 78.1 63 60% 80 30.18 1021.2
12 09:51 SE 6 10.00 A Few Clouds FEW150 75.9 63 64% 78 30.18 1021.0
12 08:51 SE 6 10.00 A Few Clouds FEW150 73 64 74% 30.17 1020.8
12 07:51 SE 6 10.00 A Few Clouds FEW100 69.1 63 69.1 64 81% 30.16 1020.4
12 06:51 SE 5 10.00 A Few Clouds FEW100 66 61 84% 30.15 1020.2
12 05:51 SE 6 10.00 A Few Clouds FEW100 64.9 60.1 84% 30.13 1019.6
12 04:51 SE 3 10.00 Fair CLR 64.9 60.1 84% 30.12 1019.3
12 03:51 Calm 10.00 Fair CLR 66 61 84% 30.13 1019.3
12 02:51 SE 6 10.00 Fair CLR 66 61 84% 30.13 1019.4
12 01:51 SE 5 10.00 Fair CLR 66.9 61 78.1 66.9 81% 30.13 1019.4
12 00:51 SE 6 10.00 Fair CLR 68 61 78% 30.13 1019.5
11 23:51 Calm 10.00 Fair CLR 68 61 78% 30.13 1019.3
11 22:51 NE 5 10.00 Fair CLR 68 60.1 76% 30.12 1019.3
11 21:51 Calm 10.00 Fair CLR 72 61 68% 30.12 1019.0
11 20:51 NE 3 10.00 Fair CLR 73 60.1 64% 30.11 1018.8
11 19:51 N 8 10.00 A Few Clouds FEW050 78.1 60.1 82 78.1 54% 79 30.1 1018.6
11 18:51 N 9 10.00 Partly Cloudy FEW043 SCT055 80.1 61 52% 81 30.09 1018.3
11 17:51 N 7 10.00 Mostly Cloudy SCT043 BKN060 80.1 61 52% 81 30.08 1017.9
11 16:51 N 9 10.00 Mostly Cloudy SCT041 BKN060 82 62.1 51% 83 30.08 1017.6
11 15:51 NW 12 10.00 Mostly Cloudy FEW041 BKN060 79 61 54% 80 30.08 1017.7
11 14:51 N 10 G 16 10.00 Mostly Cloudy BKN048 81 61 51% 82 30.07 1017.5
11 13:51 NW 10 G 18 10.00 Mostly Cloudy FEW036 BKN050 78.1 61 79 64.9 56% 80 30.07 1017.6
11 12:51 NW 13 G 16 10.00 Mostly Cloudy FEW036 BKN048 77 61 58% 79 30.08 1017.8
11 11:51 NW 9 10.00 Partly Cloudy SCT042 77 63 62% 79 30.07 1017.4
11 10:51 NW 12 10.00 Mostly Cloudy SCT015 BKN030 BKN045 73.9 63 69% 30.06 1017.1
11 09:51 NW 10 10.00 Mostly Cloudy BKN015 73 63 71% 30.05 1016.9
11 08:51 NW 8 10.00 Mostly Cloudy BKN012 69.1 63 81% 30.04 1016.7
11 07:51 W 8 8.00 Overcast BKN006 BKN010 OVC014 64.9 62.1 64.9 64 90% 30.02 1016.2 0.04
11 06:51 W 9 10.00 Mostly Cloudy BKN008 BKN014 BKN060 64 62.1 93% 30.01 1015.7
11 05:51 W 8 9.00 Overcast BKN008 BKN014 OVC050 64 62.1 93% 29.98 1014.6
11 04:51 W 9 5.00 Light Drizzle Fog/Mist BKN005 BKN010 OVC040 64 62.1 93% 29.96 1014.1 0.04
11 03:51 W 8 3.00 Light Drizzle Fog/Mist BKN005 OVC010 64 62.1 93% 29.95 1013.5 0.03
11 02:51 W 12 3.00 Light Rain Fog/Mist BKN005 OVC010 64.9 62.1 90% 29.94 1013.2 0.01
11 01:51 W 12 3.00 Light Rain Fog/Mist BKN005 OVC010 64.9 62.1 64.9 64.9 90% 29.92 1012.5 0.03 0.12
11 00:51 W 13 3.00 Light Rain Fog/Mist BKN005 OVC010 64.9 62.1 90% 29.91 1012.2 0.03
10 23:51 W 12 2.00 Light Rain Fog/Mist BKN005 OVC010 64.9 62.1 90% 29.89 1011.4 0.02
10 22:51 W 12 3.00 Light Rain Fog/Mist OVC006 64.9 62.1 90% 29.88 1010.9 0.02 0.04
10 21:51 W 14 3.00 Fog/Mist OVC006 64.9 62.1 90% 29.86 1010.2 0.01
Date Time (edt) Wind (mph) Vis. (mi.) Weather Sky Cond. Air Dwpt Max. Min. Relative Humidity Wind Chill (°F) Heat Index (°F) altimeter (in) sea level (mb) 1 hr 3 hr 6 hr
6 hour
Temperature (ºF) Pressure Precipitation (in)